TimeEST,TemperatureF,Dew PointF,Humidity,Sea Level PressureIn,VisibilityMPH,Wind Direction,Wind SpeedMPH,Gust SpeedMPH,PrecipitationIn,Events,Conditions,WindDirDegrees,DateUTC
12:15 AM,17.6,17.6,100,29.40,10.0,NW,3.5,-,N/A,,Overcast,310,2014-02-14 05:15:00
12:35 AM,17.6,17.6,100,29.38,10.0,Calm,Calm,-,N/A,,Overcast,0,2014-02-14 05:35:00
12:55 AM,17.6,17.6,100,29.38,10.0,NW,4.6,-,N/A,,Overcast,310,2014-02-14 05:55:00
1:15 AM,17.6,17.6,100,29.38,10.0,WNW,3.5,-,N/A,,Overcast,300,2014-02-14 06:15:00
1:35 AM,17.6,17.6,100,29.37,10.0,NW,4.6,-,N/A,,Overcast,310,2014-02-14 06:35:00
1:55 AM,17.6,17.6,100,29.36,10.0,NW,3.5,-,N/A,,Overcast,310,2014-02-14 06:55:00
2:15 AM,17.6,17.6,100,29.36,10.0,WNW,4.6,-,N/A,,Overcast,300,2014-02-14 07:15:00
2:35 AM,17.6,17.6,100,29.36,10.0,WNW,4.6,-,N/A,,Overcast,290,2014-02-14 07:35:00
2:55 AM,17.6,17.6,100,29.36,10.0,West,4.6,-,N/A,,Overcast,280,2014-02-14 07:55:00
3:15 AM,17.6,17.6,100,29.36,10.0,Calm,Calm,-,N/A,,Overcast,0,2014-02-14 08:15:00
3:35 AM,17.6,17.6,100,29.36,10.0,Calm,Calm,-,N/A,,Overcast,0,2014-02-14 08:35:00
3:55 AM,17.6,17.6,100,29.35,10.0,Calm,Calm,-,N/A,,Overcast,0,2014-02-14 08:55:00
4:15 AM,17.6,17.6,100,29.35,10.0,Calm,Calm,-,N/A,,Overcast,0,2014-02-14 09:15:00
4:35 AM,17.6,17.6,100,29.35,10.0,Calm,Calm,-,N/A,,Overcast,0,2014-02-14 09:35:00
5:15 AM,17.6,17.6,100,29.35,10.0,Calm,Calm,-,N/A,,Overcast,0,2014-02-14 10:15:00
5:35 AM,17.6,17.6,100,29.34,10.0,Calm,Calm,-,N/A,,Overcast,0,2014-02-14 10:35:00
5:55 AM,17.6,17.6,100,29.34,10.0,Calm,Calm,-,N/A,,Overcast,0,2014-02-14 10:55:00
6:15 AM,17.6,15.8,93,29.35,10.0,WSW,3.5,-,N/A,,Overcast,250,2014-02-14 11:15:00
6:35 AM,17.6,17.6,100,29.34,10.0,Calm,Calm,-,N/A,,Overcast,0,2014-02-14 11:35:00
6:55 AM,17.6,17.6,100,29.35,10.0,Calm,Calm,-,N/A,,Overcast,0,2014-02-14 11:55:00
7:15 AM,17.6,15.8,93,29.35,10.0,SW,3.5,-,N/A,,Overcast,230,2014-02-14 12:15:00
7:35 AM,17.6,17.6,100,29.35,10.0,WSW,3.5,-,N/A,,Overcast,240,2014-02-14 12:35:00
7:55 AM,19.4,17.6,93,29.36,10.0,WSW,5.8,-,N/A,,Overcast,250,2014-02-14 12:55:00
8:15 AM,19.4,17.6,93,29.37,10.0,WSW,4.6,-,N/A,,Overcast,250,2014-02-14 13:15:00
8:35 AM,19.4,17.6,93,29.37,10.0,WSW,4.6,-,N/A,,Overcast,250,2014-02-14 13:35:00
8:55 AM,19.4,17.6,93,29.38,10.0,WSW,5.8,-,N/A,,Overcast,250,2014-02-14 13:55:00
9:15 AM,21.2,14.0,74,29.38,10.0,West,6.9,-,N/A,,Overcast,260,2014-02-14 14:15:00
9:35 AM,21.2,14.0,74,29.38,10.0,West,4.6,-,N/A,,Overcast,270,2014-02-14 14:35:00
9:55 AM,23.0,15.8,74,29.39,10.0,West,4.6,-,N/A,,Overcast,270,2014-02-14 14:55:00
10:15 AM,23.0,17.6,80,29.40,7.0,WSW,5.8,-,N/A,,Overcast,250,2014-02-14 15:15:00
10:35 AM,23.0,19.4,86,29.41,4.0,West,4.6,-,N/A,,Overcast,260,2014-02-14 15:35:00
10:55 AM,23.0,19.4,86,29.41,5.0,WSW,3.5,-,N/A,,Overcast,250,2014-02-14 15:55:00
11:15 AM,23.0,19.4,86,29.42,5.0,WSW,4.6,-,N/A,,Overcast,250,2014-02-14 16:15:00
11:35 AM,23.0,19.4,86,29.42,5.0,WSW,6.9,-,N/A,,Overcast,240,2014-02-14 16:35:00
11:55 AM,23.0,19.4,86,29.43,5.0,West,9.2,-,N/A,,Overcast,260,2014-02-14 16:55:00
12:15 PM,23.0,19.4,86,29.44,3.0,West,8.1,-,N/A,Snow,Light Snow,260,2014-02-14 17:15:00
12:35 PM,23.0,21.2,93,29.45,1.2,West,8.1,16.1,N/A,Snow,Light Snow,260,2014-02-14 17:35:00
12:55 PM,23.0,21.2,93,29.45,1.5,West,8.1,19.6,N/A,Snow,Light Snow,260,2014-02-14 17:55:00
1:15 PM,24.8,21.2,86,29.46,1.2,West,4.6,18.4,N/A,Snow,Light Snow,260,2014-02-14 18:15:00
1:35 PM,24.8,21.2,86,29.47,1.8,WSW,8.1,-,N/A,Snow,Light Snow,250,2014-02-14 18:35:00
1:55 PM,24.8,21.2,86,29.48,2.0,West,10.4,17.3,N/A,Snow,Light Snow,260,2014-02-14 18:55:00
2:15 PM,24.8,19.4,80,29.48,3.0,West,9.2,21.9,N/A,Snow,Light Snow,270,2014-02-14 19:15:00
2:35 PM,24.8,19.4,80,29.49,4.0,West,6.9,23.0,N/A,Snow,Light Snow,270,2014-02-14 19:35:00
2:55 PM,24.8,19.4,80,29.50,5.0,West,8.1,17.3,N/A,Snow,Light Snow,260,2014-02-14 19:55:00
3:15 PM,24.8,19.4,80,29.51,5.0,West,8.1,19.6,N/A,Snow,Light Snow,270,2014-02-14 20:15:00
3:35 PM,23.0,19.4,86,29.52,4.0,West,10.4,23.0,N/A,Snow,Light Snow,270,2014-02-14 20:35:00
3:55 PM,23.0,19.4,86,29.52,5.0,West,9.2,24.2,N/A,Snow,Light Snow,260,2014-02-14 20:55:00
4:15 PM,23.0,19.4,86,29.53,5.0,West,8.1,17.3,N/A,Snow,Light Snow,260,2014-02-14 21:15:00
4:35 PM,23.0,19.4,86,29.54,5.0,West,6.9,-,N/A,Snow,Light Snow,260,2014-02-14 21:35:00
4:55 PM,23.0,19.4,86,29.54,5.0,West,8.1,-,N/A,Snow,Light Snow,270,2014-02-14 21:55:00
5:15 PM,23.0,19.4,86,29.55,4.0,West,8.1,-,N/A,Snow,Light Snow,280,2014-02-14 22:15:00
5:35 PM,23.0,19.4,86,29.57,2.0,West,6.9,-,N/A,Snow,Light Snow,270,2014-02-14 22:35:00
5:55 PM,23.0,19.4,86,29.58,4.0,West,4.6,-,N/A,Snow,Light Snow,280,2014-02-14 22:55:00
6:15 PM,23.0,19.4,86,29.59,7.0,West,5.8,-,N/A,Snow,Light Snow,270,2014-02-14 23:15:00
6:35 PM,23.0,19.4,86,29.59,10.0,West,6.9,-,N/A,Snow,Light Snow,260,2014-02-14 23:35:00
6:55 PM,23.0,19.4,86,29.60,7.0,West,3.5,-,N/A,Snow,Light Snow,280,2014-02-14 23:55:00
7:15 PM,23.0,19.4,86,29.61,10.0,West,4.6,-,N/A,Snow,Light Snow,270,2014-02-15 00:15:00
7:35 PM,23.0,19.4,86,29.60,10.0,WSW,3.5,-,N/A,Snow,Light Snow,250,2014-02-15 00:35:00
7:55 PM,23.0,19.4,86,29.61,10.0,West,4.6,-,N/A,Snow,Light Snow,260,2014-02-15 00:55:00
8:15 PM,23.0,19.4,86,29.61,10.0,West,5.8,-,N/A,Snow,Light Snow,260,2014-02-15 01:15:00
8:35 PM,23.0,19.4,86,29.61,10.0,WSW,3.5,-,N/A,,Overcast,250,2014-02-15 01:35:00
8:55 PM,23.0,19.4,86,29.61,10.0,WSW,3.5,-,N/A,Snow,Light Snow,250,2014-02-15 01:55:00
9:15 PM,21.2,19.4,93,29.61,7.0,WSW,4.6,-,N/A,,Overcast,250,2014-02-15 02:15:00
9:35 PM,21.2,19.4,93,29.63,10.0,West,5.8,-,N/A,Snow,Light Snow,260,2014-02-15 02:35:00
9:55 PM,21.2,19.4,93,29.63,7.0,WSW,4.6,-,N/A,Snow,Light Snow,250,2014-02-15 02:55:00
10:15 PM,21.2,19.4,93,29.64,7.0,Calm,Calm,-,N/A,Snow,Light Snow,0,2014-02-15 03:15:00
10:35 PM,21.2,19.4,93,29.63,7.0,Calm,Calm,-,N/A,Snow,Light Snow,0,2014-02-15 03:35:00
10:55 PM,21.2,19.4,93,29.63,7.0,WSW,3.5,-,N/A,Snow,Light Snow,250,2014-02-15 03:55:00
11:15 PM,21.2,17.6,86,29.63,10.0,West,3.5,-,N/A,,Overcast,280,2014-02-15 04:15:00
11:35 PM,21.2,17.6,86,29.63,10.0,WSW,3.5,-,N/A,,Overcast,250,2014-02-15 04:35:00
11:55 PM,21.2,17.6,86,29.63,10.0,West,3.5,-,N/A,,Overcast,280,2014-02-15 04:55:00